HKE302 VHHH-ZSAM

Flight info

Callsign HKE302
Flight time 0h 58m
Altitude 20700
Route LEKEN V601 DOTMI/K0719S0630 A470 TEBON TEBON8X
Aircraft B738/M-SDE2E3FGHIRWXY/LB1

Departure

Time 2026-05-06 02:58
Airport Hong Kong International Airport (VHHH)

Arrival

Time 2026-05-06 03:56
Airport Xiamen Gaoqi International Airport (ZSAM)
Time Latitude Longitude Altitude Speed Heading
2026-05-06 02:05 22.31179 113.92777 36 ft 0 kts 298°
2026-05-06 02:43 22.31178 113.92780 36 ft 2 kts 298°
2026-05-06 02:43 22.31172 113.92794 36 ft 2 kts 289°
2026-05-06 02:43 22.31168 113.92809 36 ft 2 kts 283°
2026-05-06 02:43 22.31165 113.92825 36 ft 2 kts 276°
2026-05-06 02:44 22.31165 113.92841 36 ft 2 kts 269°
2026-05-06 02:44 22.31166 113.92857 36 ft 2 kts 262°
2026-05-06 02:44 22.31169 113.92873 36 ft 2 kts 255°
2026-05-06 02:44 22.31173 113.92889 36 ft 2 kts 249°
2026-05-06 02:45 22.31178 113.92903 36 ft 2 kts 251°
2026-05-06 02:45 22.31183 113.92918 36 ft 2 kts 250°
2026-05-06 02:45 22.31188 113.92934 36 ft 2 kts 251°
2026-05-06 02:45 22.31193 113.92949 36 ft 2 kts 250°
2026-05-06 02:46 22.31195 113.92956 36 ft 0 kts 250°
2026-05-06 02:47 22.31195 113.92955 36 ft 0 kts 250°
2026-05-06 02:47 22.31192 113.92946 36 ft 2 kts 251°
2026-05-06 02:48 22.31187 113.92928 36 ft 2 kts 251°
2026-05-06 02:48 22.31178 113.92907 36 ft 3 kts 237°
2026-05-06 02:48 22.31152 113.92882 36 ft 6 kts 211°
2026-05-06 02:48 22.31111 113.92859 36 ft 6 kts 206°
2026-05-06 02:49 22.31071 113.92838 36 ft 6 kts 206°
2026-05-06 02:49 22.31025 113.92815 36 ft 8 kts 206°
2026-05-06 02:49 22.30971 113.92786 36 ft 9 kts 206°
2026-05-06 02:49 22.30907 113.92753 36 ft 10 kts 206°
2026-05-06 02:50 22.30851 113.92719 36 ft 8 kts 225°
2026-05-06 02:50 22.30830 113.92680 36 ft 10 kts 249°
2026-05-06 02:50 22.30792 113.92565 36 ft 14 kts 250°
2026-05-06 02:50 22.30756 113.92453 36 ft 17 kts 251°
2026-05-06 02:51 22.30714 113.92320 36 ft 20 kts 251°
2026-05-06 02:51 22.30666 113.92171 36 ft 21 kts 251°
2026-05-06 02:51 22.30612 113.92036 36 ft 18 kts 229°
2026-05-06 02:51 22.30520 113.91948 36 ft 17 kts 220°
2026-05-06 02:52 22.30465 113.91842 36 ft 16 kts 251°
2026-05-06 02:52 22.30426 113.91721 36 ft 17 kts 251°
2026-05-06 02:52 22.30384 113.91592 36 ft 18 kts 251°
2026-05-06 02:52 22.30339 113.91454 36 ft 20 kts 250°
2026-05-06 02:53 22.30292 113.91306 36 ft 21 kts 251°
2026-05-06 02:53 22.30241 113.91151 36 ft 22 kts 251°
2026-05-06 02:53 22.30188 113.90984 36 ft 23 kts 251°
2026-05-06 02:53 22.30135 113.90820 36 ft 22 kts 251°
2026-05-06 02:54 22.30085 113.90663 36 ft 21 kts 251°
2026-05-06 02:54 22.30036 113.90514 36 ft 20 kts 251°
2026-05-06 02:54 22.29989 113.90368 36 ft 20 kts 251°
2026-05-06 02:54 22.29962 113.90285 36 ft 4 kts 251°
2026-05-06 02:55 22.29953 113.90256 36 ft 2 kts 251°
2026-05-06 02:55 22.29948 113.90244 36 ft 3 kts 230°
2026-05-06 02:55 22.29903 113.90226 36 ft 6 kts 171°
2026-05-06 02:55 22.29851 113.90244 36 ft 9 kts 161°
2026-05-06 02:56 22.29796 113.90266 36 ft 5 kts 147°
2026-05-06 02:56 22.29782 113.90299 36 ft 4 kts 84°
2026-05-06 02:56 22.29786 113.90313 36 ft 0 kts 73°
2026-05-06 02:56 22.29786 113.90314 36 ft 0 kts 73°
2026-05-06 02:57 22.29799 113.90359 36 ft 26 kts 71°
2026-05-06 02:57 22.29938 113.90791 36 ft 93 kts 71°
2026-05-06 02:57 22.30218 113.91655 37 ft 148 kts 70°
2026-05-06 02:57 22.30592 113.92786 423 ft 158 kts 72°
2026-05-06 02:58 22.30960 113.93922 903 ft 169 kts 72°
2026-05-06 02:58 22.31360 113.95133 1479 ft 175 kts 73°
2026-05-06 02:58 22.31757 113.96361 2147 ft 175 kts 73°
2026-05-06 02:58 22.32165 113.97625 2684 ft 183 kts 73°
2026-05-06 02:59 22.32584 113.98928 3263 ft 188 kts 73°
2026-05-06 02:59 22.33035 114.00339 3630 ft 209 kts 73°
2026-05-06 02:59 22.33535 114.01898 4106 ft 227 kts 73°
2026-05-06 02:59 22.33906 114.03537 4814 ft 230 kts 87°
2026-05-06 03:00 22.33676 114.05234 5490 ft 233 kts 114°
2026-05-06 03:00 22.32835 114.06702 6180 ft 235 kts 132°
2026-05-06 03:00 22.31622 114.07921 6803 ft 243 kts 149°
2026-05-06 03:00 22.30019 114.08621 7263 ft 256 kts 172°
2026-05-06 03:01 22.28223 114.08736 7937 ft 261 kts 182°
2026-05-06 03:01 22.26358 114.08708 8415 ft 277 kts 184°
2026-05-06 03:01 22.24372 114.08673 8987 ft 290 kts 184°
2026-05-06 03:01 22.22342 114.08650 9755 ft 295 kts 184°
2026-05-06 03:02 22.20271 114.08656 10482 ft 303 kts 180°
2026-05-06 03:02 22.18147 114.09016 10942 ft 324 kts 164°
2026-05-06 03:02 22.16099 114.10195 11380 ft 346 kts 143°
2026-05-06 03:02 22.14430 114.12186 11827 ft 365 kts 124°
2026-05-06 03:03 22.13179 114.14581 12527 ft 371 kts 119°
2026-05-06 03:03 22.11999 114.17065 13237 ft 377 kts 118°
2026-05-06 03:03 22.10808 114.19607 14047 ft 379 kts 118°
2026-05-06 03:03 22.09623 114.22120 14788 ft 383 kts 118°
2026-05-06 03:04 22.08773 114.23812 15299 ft 385 kts 121°
2026-05-06 03:04 22.06683 114.26902 16273 ft 386 kts 136°
2026-05-06 03:04 22.04665 114.28822 17014 ft 387 kts 143°
2026-05-06 03:04 22.02497 114.30577 17674 ft 391 kts 146°
2026-05-06 03:05 22.00268 114.32273 18296 ft 396 kts 146°
2026-05-06 03:05 21.98009 114.33971 18958 ft 400 kts 146°
2026-05-06 03:05 21.95690 114.35730 19564 ft 405 kts 146°
2026-05-06 03:05 21.93407 114.37485 20174 ft 410 kts 146°
2026-05-06 03:06 21.91096 114.39358 20598 ft 416 kts 142°
2026-05-06 03:06 21.89015 114.41533 20662 ft 423 kts 130°
2026-05-06 03:06 21.87393 114.44164 20671 ft 423 kts 117°
2026-05-06 03:06 21.86311 114.47083 20671 ft 418 kts 107°
2026-05-06 03:07 21.85647 114.50093 20669 ft 417 kts 99°
2026-05-06 03:07 21.85370 114.53220 20666 ft 416 kts 90°
2026-05-06 03:07 21.85438 114.56290 20667 ft 415 kts 85°
2026-05-06 03:07 21.85670 114.59396 20666 ft 415 kts 83°
2026-05-06 03:08 21.85967 114.62509 20665 ft 415 kts 83°
2026-05-06 03:08 21.86272 114.65595 20663 ft 415 kts 83°
2026-05-06 03:08 21.86563 114.68653 20668 ft 416 kts 83°
2026-05-06 03:08 21.86751 114.70734 20665 ft 415 kts 84°
2026-05-06 03:09 21.87017 114.73826 20667 ft 414 kts 84°
2026-05-06 03:09 21.87352 114.77953 20668 ft 414 kts 84°
2026-05-06 03:09 21.87593 114.81033 20666 ft 415 kts 84°
2026-05-06 03:09 21.87751 114.83096 20663 ft 414 kts 84°
2026-05-06 03:10 21.87983 114.86153 20667 ft 414 kts 85°
2026-05-06 03:10 21.88294 114.90287 20665 ft 412 kts 85°
2026-05-06 03:10 21.88498 114.93349 20666 ft 412 kts 86°
2026-05-06 03:10 21.88630 114.96397 20664 ft 413 kts 87°
2026-05-06 03:11 21.88723 114.99501 20665 ft 413 kts 88°
2026-05-06 03:11 21.88802 115.02593 20666 ft 414 kts 88°
2026-05-06 03:11 21.88878 115.05666 20668 ft 414 kts 88°
2026-05-06 03:11 21.88932 115.07754 20667 ft 414 kts 88°
2026-05-06 03:12 21.89043 115.11856 20669 ft 412 kts 88°
2026-05-06 03:12 21.89131 115.14941 20663 ft 413 kts 87°
2026-05-06 03:12 21.89221 115.18008 20670 ft 414 kts 87°
2026-05-06 03:12 21.89312 115.21081 20671 ft 413 kts 87°
2026-05-06 03:13 21.89405 115.24200 20670 ft 413 kts 87°
2026-05-06 03:13 21.89497 115.27273 20669 ft 412 kts 87°
2026-05-06 03:13 21.89588 115.30330 20672 ft 411 kts 87°
2026-05-06 03:13 21.89680 115.33389 20673 ft 410 kts 87°
2026-05-06 03:14 21.89772 115.36467 20672 ft 411 kts 87°
2026-05-06 03:14 21.89863 115.39545 20672 ft 410 kts 87°
2026-05-06 03:14 21.89923 115.41575 20674 ft 410 kts 87°
2026-05-06 03:14 21.90043 115.45667 20677 ft 409 kts 87°
2026-05-06 03:15 21.90131 115.48704 20673 ft 409 kts 87°
2026-05-06 03:15 21.90220 115.51785 20674 ft 410 kts 87°
2026-05-06 03:15 21.90308 115.54841 20671 ft 410 kts 87°
2026-05-06 03:15 21.90395 115.57875 20670 ft 410 kts 87°
2026-05-06 03:16 21.90520 115.60938 20671 ft 409 kts 85°
2026-05-06 03:16 21.90846 115.63988 20669 ft 408 kts 80°
2026-05-06 03:16 21.91347 115.66987 20666 ft 410 kts 78°
2026-05-06 03:16 21.91937 115.69974 20665 ft 407 kts 77°
2026-05-06 03:17 21.92356 115.71982 20667 ft 408 kts 76°
2026-05-06 03:17 21.93195 115.75932 20664 ft 407 kts 76°
2026-05-06 03:17 21.93824 115.78903 20666 ft 406 kts 76°
2026-05-06 03:17 21.94235 115.80862 20665 ft 407 kts 77°
2026-05-06 03:18 21.95051 115.84802 20666 ft 406 kts 77°
2026-05-06 03:18 21.95659 115.87773 20663 ft 406 kts 77°
2026-05-06 03:18 21.96263 115.90743 20664 ft 406 kts 77°
2026-05-06 03:18 21.96864 115.93712 20665 ft 405 kts 77°
2026-05-06 03:19 21.97466 115.96695 20666 ft 406 kts 77°
2026-05-06 03:19 21.98059 115.99637 20666 ft 406 kts 77°
2026-05-06 03:19 21.98660 116.02621 20667 ft 406 kts 77°
2026-05-06 03:19 21.99293 116.05598 20665 ft 406 kts 75°
2026-05-06 03:20 22.01517 116.11097 20666 ft 404 kts 53°
2026-05-06 03:20 22.03358 116.13366 20667 ft 403 kts 43°
2026-05-06 03:20 22.05527 116.15340 20668 ft 402 kts 36°
2026-05-06 03:21 22.07864 116.16967 20667 ft 400 kts 26°
2026-05-06 03:21 22.10429 116.18041 20669 ft 399 kts 14°
2026-05-06 03:21 22.13166 116.18566 20669 ft 398 kts
2026-05-06 03:21 22.15944 116.18720 20669 ft 397 kts 360°
2026-05-06 03:22 22.18697 116.18699 20668 ft 397 kts 358°
2026-05-06 03:22 22.21483 116.18604 20668 ft 397 kts 356°
2026-05-06 03:22 22.24243 116.18484 20669 ft 396 kts 356°
2026-05-06 03:22 22.26985 116.18362 20668 ft 396 kts 356°
2026-05-06 03:23 22.29758 116.18246 20668 ft 396 kts 356°
2026-05-06 03:23 22.32495 116.18140 20667 ft 396 kts 357°
2026-05-06 03:23 22.35258 116.18040 20668 ft 396 kts 357°
2026-05-06 03:23 22.38026 116.17945 20669 ft 396 kts 357°
2026-05-06 03:24 22.40775 116.17853 20671 ft 396 kts 357°
2026-05-06 03:24 22.43564 116.17761 20675 ft 396 kts 357°
2026-05-06 03:24 22.46315 116.17671 20676 ft 396 kts 357°
2026-05-06 03:24 22.49076 116.17582 20677 ft 396 kts 357°
2026-05-06 03:25 22.51834 116.17493 20683 ft 396 kts 357°
2026-05-06 03:25 22.54587 116.17403 20679 ft 396 kts 357°
2026-05-06 03:25 22.57328 116.17314 20680 ft 396 kts 357°
2026-05-06 03:25 22.60117 116.17224 20679 ft 396 kts 357°
2026-05-06 03:26 22.62859 116.17134 20680 ft 395 kts 357°
2026-05-06 03:26 22.65625 116.17046 20679 ft 395 kts 357°
2026-05-06 03:26 22.68368 116.17084 20683 ft 396 kts
2026-05-06 03:26 22.71112 116.17563 20680 ft 398 kts 14°
2026-05-06 03:27 22.73664 116.18670 20683 ft 400 kts 26°
2026-05-06 03:27 22.76033 116.20265 20681 ft 400 kts 33°
2026-05-06 03:27 22.77535 116.21426 20681 ft 401 kts 35°
2026-05-06 03:27 22.79764 116.23239 20684 ft 401 kts 36°
2026-05-06 03:28 22.82004 116.25114 20685 ft 401 kts 37°
2026-05-06 03:28 22.84941 116.27592 20688 ft 402 kts 37°
2026-05-06 03:28 22.87132 116.29436 20685 ft 402 kts 37°
2026-05-06 03:28 22.89357 116.31303 20686 ft 402 kts 36°
2026-05-06 03:29 22.91554 116.33139 20681 ft 402 kts 36°
2026-05-06 03:29 22.93790 116.35005 20687 ft 402 kts 36°
2026-05-06 03:29 22.96006 116.36852 20686 ft 402 kts 36°
2026-05-06 03:29 22.98222 116.38689 20688 ft 401 kts 36°
2026-05-06 03:30 23.00437 116.40520 20685 ft 401 kts 36°
2026-05-06 03:30 23.02657 116.42353 20680 ft 401 kts 36°
2026-05-06 03:30 23.04891 116.44196 20683 ft 401 kts 36°
2026-05-06 03:30 23.07111 116.46029 20695 ft 401 kts 36°
2026-05-06 03:31 23.09340 116.47870 20690 ft 401 kts 36°
2026-05-06 03:31 23.11583 116.49725 20687 ft 401 kts 36°
2026-05-06 03:31 23.13786 116.51547 20686 ft 402 kts 36°
2026-05-06 03:31 23.16015 116.53394 20691 ft 401 kts 36°
2026-05-06 03:32 23.18236 116.55233 20690 ft 401 kts 36°
2026-05-06 03:32 23.20453 116.57069 20689 ft 402 kts 36°
2026-05-06 03:32 23.22686 116.58920 20691 ft 401 kts 36°
2026-05-06 03:32 23.24902 116.60757 20690 ft 401 kts 36°
2026-05-06 03:33 23.27126 116.62603 20690 ft 401 kts 36°
2026-05-06 03:33 23.29329 116.64431 20696 ft 402 kts 36°
2026-05-06 03:33 23.31577 116.66299 20692 ft 401 kts 36°
2026-05-06 03:33 23.33798 116.68144 20690 ft 401 kts 36°
2026-05-06 03:34 23.35994 116.69970 20691 ft 401 kts 36°
2026-05-06 03:34 23.38236 116.71833 20692 ft 401 kts 36°
2026-05-06 03:34 23.40443 116.73669 20698 ft 401 kts 36°
2026-05-06 03:34 23.42656 116.75518 20699 ft 401 kts 37°
2026-05-06 03:35 23.44805 116.77483 20694 ft 402 kts 41°
2026-05-06 03:35 23.46796 116.79572 20693 ft 403 kts 44°
2026-05-06 03:35 23.48760 116.81786 20695 ft 403 kts 45°
2026-05-06 03:35 23.50669 116.83995 20696 ft 403 kts 45°
2026-05-06 03:36 23.52600 116.86240 20695 ft 403 kts 45°
2026-05-06 03:36 23.53876 116.87720 20690 ft 402 kts 45°
2026-05-06 03:36 23.56423 116.90659 20694 ft 402 kts 45°
2026-05-06 03:36 23.58370 116.92893 20694 ft 402 kts 45°
2026-05-06 03:37 23.60301 116.95100 20697 ft 403 kts 45°
2026-05-06 03:37 23.62212 116.97281 20686 ft 402 kts 45°
2026-05-06 03:37 23.64163 116.99505 20690 ft 403 kts 45°
2026-05-06 03:37 23.66105 117.01716 20691 ft 403 kts 44°
2026-05-06 03:38 23.68021 117.03899 20691 ft 403 kts 44°
2026-05-06 03:38 23.69981 117.06132 20693 ft 403 kts 45°
2026-05-06 03:38 23.71920 117.08342 20695 ft 403 kts 45°
2026-05-06 03:38 23.73839 117.10531 20694 ft 403 kts 44°
2026-05-06 03:39 23.75758 117.12722 20691 ft 397 kts 44°
2026-05-06 03:39 23.77683 117.14867 20560 ft 385 kts 42°
2026-05-06 03:39 23.79622 117.16845 20252 ft 377 kts 40°
2026-05-06 03:39 23.81575 117.18730 19822 ft 373 kts 39°
2026-05-06 03:40 23.83530 117.20583 19305 ft 371 kts 39°
2026-05-06 03:40 23.85466 117.22420 18776 ft 370 kts 39°
2026-05-06 03:40 23.87407 117.24274 18253 ft 369 kts 39°
2026-05-06 03:40 23.89331 117.26127 17725 ft 367 kts 39°
2026-05-06 03:41 23.91248 117.27987 17217 ft 365 kts 39°
2026-05-06 03:41 23.93129 117.29821 16710 ft 364 kts 39°
2026-05-06 03:41 23.95026 117.31674 16187 ft 363 kts 39°
2026-05-06 03:41 23.96906 117.33514 15673 ft 363 kts 39°
2026-05-06 03:42 23.98779 117.35349 15145 ft 362 kts 39°
2026-05-06 03:42 24.00639 117.37170 14626 ft 361 kts 39°
2026-05-06 03:42 24.02516 117.39010 14092 ft 360 kts 39°
2026-05-06 03:42 24.04370 117.40827 13572 ft 358 kts 39°
2026-05-06 03:43 24.06224 117.42646 13054 ft 357 kts 39°
2026-05-06 03:43 24.08069 117.44455 12532 ft 356 kts 39°
2026-05-06 03:43 24.09897 117.46249 12009 ft 355 kts 39°
2026-05-06 03:43 24.11757 117.48075 11482 ft 353 kts 39°
2026-05-06 03:44 24.13566 117.49882 10949 ft 352 kts 42°
2026-05-06 03:44 24.15280 117.51784 10467 ft 348 kts 45°
2026-05-06 03:44 24.16909 117.53708 10231 ft 337 kts 46°
2026-05-06 03:44 24.18457 117.55585 10125 ft 322 kts 46°
2026-05-06 03:45 24.19933 117.57384 9827 ft 312 kts 46°
2026-05-06 03:45 24.21375 117.59135 9411 ft 305 kts 46°
2026-05-06 03:45 24.22792 117.60844 9025 ft 297 kts 46°
2026-05-06 03:45 24.24157 117.62483 8700 ft 289 kts 46°
2026-05-06 03:46 24.25515 117.64111 8322 ft 288 kts 46°
2026-05-06 03:46 24.26863 117.65726 7968 ft 286 kts 46°
2026-05-06 03:46 24.28193 117.67319 7637 ft 284 kts 46°
2026-05-06 03:46 24.29517 117.68907 7280 ft 282 kts 46°
2026-05-06 03:47 24.30844 117.70499 6952 ft 279 kts 46°
2026-05-06 03:47 24.32150 117.72069 6617 ft 277 kts 46°
2026-05-06 03:47 24.33432 117.73608 6269 ft 276 kts 46°
2026-05-06 03:47 24.34737 117.75176 5922 ft 274 kts 46°
2026-05-06 03:48 24.35998 117.76691 5744 ft 265 kts 46°
2026-05-06 03:48 24.37208 117.78148 5679 ft 252 kts 46°
2026-05-06 03:48 24.38356 117.79529 5612 ft 241 kts 46°
2026-05-06 03:48 24.39418 117.80935 5533 ft 233 kts 56°
2026-05-06 03:49 24.40035 117.82571 5338 ft 232 kts 80°
2026-05-06 03:49 24.40150 117.84301 5097 ft 225 kts 89°
2026-05-06 03:49 24.40190 117.86002 4841 ft 218 kts 88°
2026-05-06 03:49 24.40271 117.87633 4638 ft 211 kts 86°
2026-05-06 03:50 24.40376 117.89191 4469 ft 201 kts 85°
2026-05-06 03:50 24.40490 117.90713 4337 ft 196 kts 85°
2026-05-06 03:50 24.40618 117.92203 4212 ft 194 kts 81°
2026-05-06 03:50 24.40974 117.93615 4108 ft 198 kts 65°
2026-05-06 03:51 24.41681 117.94947 3800 ft 206 kts 55°
2026-05-06 03:51 24.42532 117.96222 3505 ft 204 kts 52°
2026-05-06 03:51 24.43390 117.97439 3233 ft 199 kts 52°
2026-05-06 03:51 24.44210 117.98587 2973 ft 186 kts 52°
2026-05-06 03:52 24.45003 117.99695 2729 ft 183 kts 52°
2026-05-06 03:52 24.45793 118.00794 2494 ft 181 kts 52°
2026-05-06 03:52 24.46301 118.01499 2315 ft 173 kts 51°
2026-05-06 03:52 24.47253 118.02818 2024 ft 158 kts 52°
2026-05-06 03:53 24.47899 118.03712 1837 ft 146 kts 52°
2026-05-06 03:53 24.48513 118.04565 1619 ft 139 kts 52°
2026-05-06 03:53 24.49109 118.05398 1466 ft 141 kts 52°
2026-05-06 03:53 24.49726 118.06256 1269 ft 145 kts 52°
2026-05-06 03:54 24.50347 118.07116 1076 ft 142 kts 52°
2026-05-06 03:54 24.50963 118.07958 898 ft 141 kts 51°
2026-05-06 03:54 24.51576 118.08801 732 ft 141 kts 52°
2026-05-06 03:54 24.52186 118.09647 543 ft 140 kts 53°
2026-05-06 03:55 24.52781 118.10478 357 ft 139 kts 52°
2026-05-06 03:55 24.53375 118.11314 178 ft 138 kts 52°
2026-05-06 03:55 24.53952 118.12132 76 ft 124 kts 53°
2026-05-06 03:55 24.54359 118.12691 75 ft 60 kts 52°
2026-05-06 03:56 24.54502 118.12949 75 ft 30 kts 74°
2026-05-06 03:56 24.54537 118.13132 75 ft 16 kts 79°
2026-05-06 03:56 24.54553 118.13225 75 ft 11 kts 75°
2026-05-06 03:56 24.54572 118.13277 75 ft 10 kts 60°
2026-05-06 03:57 24.54614 118.13340 75 ft 9 kts 51°
2026-05-06 03:57 24.54655 118.13397 75 ft 9 kts 52°
2026-05-06 03:57 24.54722 118.13491 74 ft 13 kts 52°
2026-05-06 03:57 24.54785 118.13580 74 ft 16 kts 52°
2026-05-06 03:58 24.54853 118.13674 74 ft 10 kts 52°
2026-05-06 03:58 24.54873 118.13726 74 ft 6 kts 101°
2026-05-06 03:58 24.54833 118.13773 74 ft 8 kts 142°
2026-05-06 03:58 24.54800 118.13805 74 ft 3 kts 109°
2026-05-06 03:59 24.54802 118.13846 74 ft 7 kts 78°
2026-05-06 03:59 24.54812 118.13892 74 ft 4 kts 77°
2026-05-06 03:59 24.54815 118.13906 74 ft 0 kts 77°
2026-05-06 03:59 24.54816 118.13911 74 ft 0 kts 77°